DECAYED

ELECTRON R/B, 63360 (Decayed)

Orbit data source: Space-Track

ELECTRON R/B, 63360 was space debris in LEO originally from an American launch on Wed, 26 Mar 2025 UTC launched from the Rocket Lab Launch Complex (RLLC). Debris objects in space refer to the collection of defunct objects orbiting the Earth. Examples of debris include non-operational satellites, rocket bodies, and fragments generated from explosions, collisions, or faulty payload assembly.

Not visible in the next 10 days
Identifier
63360, 2025-061K
Orbit
Decayed
Last TLE update
3 months ago
Origin
Flag of USUS
Manufacturer
Unknown
Mission
Decayed spacecraft
Bus & Motor
Unknown
Mass
Unknown
Launch date (UTC)
2025-03-26 (3 months ago)
Launch vehicle
Unknown
Launch site
Rocket Lab Launch Complex (RLLC)
Object type
Payload
Rocket body
Debris
Shape & HBR
Trunc Cone, 1.4 m
Radar Cross Section
0.760 m², Large (>1 m²)

Expand to show TLE details & history

TLE from 3 months ago
0 ELECTRON R/B
1 63360U 25061K   25093.91998919  .15544858  16667-5  57746-3 0  9999
2 63360  97.4778  71.5023 0070408 204.7066 215.7806 16.32848516  1312
Epoch: 2025-04-03T22:04Z
TLE epoch observation values (Epoch: 2025-04-03T22:04:47.066Z)
Latitude
59.2903°
Longitude
-104.87232°
Altitude
232.626 km
Speed
7.751 km/s
True Right ascension
03h 55m 14s
True Declination
59° 07' 37"
Sunlit
Object was in daylight at epoch
Visualization orbit readout
Visualization observer readout
Orbital elements
Apogee altitude
227.903 km
Perigee altitude
135.529 km
Semi-major axis
6,559.853 km
Eccentricity
0.00704
Inclination
97.4778°
RAAN
71.5023°
Arg. of periapsis
204.7066°
True anomaly
Unknown
Mean anomaly
215.7806°
Eccentric anomaly
Unknown
Mean motion
4.08509 °/min
Orbital period
88.13 mins
BSTAR
0.00057746
Loading maneuver chart data...
Loading SW <> Apogee altitude chart data...
Loading historical data...
Loading historical data...
Loading historical data...
Loading historical data...
Loading historical data...
Loading historical data...
Loading historical data...

ELECTRON R/B Visibility

Observer location: undefined°, undefined°

This satellite is decayed
Span
Click to sort rows by Start time (UTC) header in descending order
Start Az.
Max El. time (UTC)
Max El. Az.
Max El.
End time (UTC)
End Az.
|